Location: Dominion City
(49.1330°N, 97.1500°W)
Time: 13:35:36
(UTC-05:00)

Daily predictions for brighter satellites

Satellite Brightness Start Highest point End
(mag) Time Altitude Azimuth Time Altitude Azimuth Time Altitude Azimuth
Meteor 1-27 Rocket 3.9 21:48:31 10° N 21:54:06 60° ENE 21:59:33 10° SSE
Cosmos 1340 Rocket 3.5 21:51:24 10° SSW 21:55:21 61° WNW 21:59:23 10° N
YAOGAN 6 3.1 21:52:49 10° SE 21:56:08 41° ENE 21:59:28 10° N
Cosmos 1408 3.9 21:53:48 10° SE 21:56:45 23° E 21:59:42 10° NE
Cosmos 1782 2.9 21:54:07 10° N 21:58:10 90° NW 22:02:12 10° S
Nadezhda 3 Rocket 4.2 21:54:14 10° N 22:00:34 63° ENE 22:06:52 10° SSE
Cosmos 2263 Rocket 3.3 21:55:08 10° SW 22:00:40 52° NW 22:06:11 10° NNE
MetOp-A 4.2 21:56:51 10° SSE 22:02:10 70° ENE 22:07:30 10° N
Cosmos 1939 Rocket 3.3 21:59:01 10° S 22:02:50 60° W 22:06:45 10° NNW
NOSS 2-2 (C) 3.7 21:59:32 10° SSW 22:03:38 54° ESE 22:08:30 10° NE
Envisat 3.2 21:59:36 10° S 22:04:41 74° WSW 22:09:47 10° NNW
Cosmos 1624 Rocket 4.0 21:59:36 10° SSW 22:04:51 77° ESE 22:10:12 10° NNE
Okean 2 Rocket 4.3 22:03:29 10° SE 22:07:06 25° E 22:10:42 10° NNE
Cosmos 1238 Rocket 2.8 22:04:21 10° N 22:07:16 41° ENE 22:10:29 10° SSE
Cosmos 1242 Rocket 3.8 22:04:24 10° N 22:07:33 27° ENE 22:10:42 10° SE
ERBS 4.1 22:05:21 10° WNW 22:08:13 24° SW 22:11:02 10° S
PSLV R/B 3.0 22:07:43 10° SSE 22:10:40 77° ENE 22:13:38 10° N
H-2A R/B 3.2 22:06:05 10° ESE 22:10:44 30° ENE 22:15:19 10° N
Cosmos 1606 2.7 22:07:54 10° N 22:11:52 79° E 22:15:48 10° SSE
Sich 1 Rocket 3.7 22:07:32 10° S 22:12:05 67° E 22:16:39 10° NNE
Cosmos 1461 3.7 22:07:29 10° SW 22:12:06 63° NW 22:16:34 10° NE
Cosmos 1674 Rocket 4.0 22:08:10 10° NNW 22:12:37 65° W 22:17:01 10° S
SPOT 5 3.2 22:09:37 10° SSE 22:14:54 82° WSW 22:20:19 10° NNW
Cosmos 407 Rocket 3.8 22:14:04 10° NNW 22:19:17 68° WSW 22:24:33 10° S
NOAA 11 4.4 22:14:29 10° SSE 22:19:52 60° ENE 22:25:18 10° N
NOSS 2-2 (E) 3.7 22:18:16 10° SW 22:22:34 83° SE 22:27:49 10° NE
Cosmos 2341 Rocket 4.2 22:16:48 10° S 22:22:57 58° E 22:29:05 10° NNE
Cosmos 1892 4.1 22:19:30 10° SSW 22:23:08 41° WNW 22:26:50 10° N
Terra 2.9 22:21:17 11° ESE 22:25:14 30° ENE 22:29:23 10° N
SPOT 1/Viking Rocket 3.6 22:20:27 10° SSE 22:25:37 75° ENE 22:30:52 10° NNW
Cosmos 1452 Rocket 3.7 22:23:41 10° S 22:28:45 52° ESE 22:33:53 10° NNE
Cosmos 1782 Rocket 3.9 22:25:00 10° SSE 22:29:16 48° E 22:33:37 10° NNE
Timation 2 Rocket 4.1 22:23:45 10° NNW 22:29:46 64° NE 22:35:01 13° SE
Cosmos 1140 Rocket 3.5 22:28:24 10° NNW 22:33:33 69° ENE 22:37:56 14° SSE
Coronas F rocket 4.2 22:33:08 10° WSW 22:35:09 19° WNW 22:37:10 10° NNW
DNEPR-1 R/B 4.1 22:31:19 10° NW 22:37:11 74° NE 22:41:08 15° SE
Okean 3 3.5 22:34:29 10° N 22:38:48 86° W 22:42:53 11° S
OPS 6432 4.3 22:37:20 10° SW 22:40:35 82° NW 22:43:44 10° NE
Cosmos 1975 Rocket 3.0 22:36:41 10° N 22:41:03 84° E 22:44:55 13° S
BREEZE-M DEB (TANK) 1.1 22:39:51 10° WSW 22:41:52 75° SSE 22:44:56 10° E
Cosmos 962 Rocket 4.5 22:41:17 10° S 22:47:26 83° E 22:53:42 10° N
SL-8 Rocket 4.2 22:41:37 10° SSE 22:47:39 53° E 22:53:42 10° NNE
CARTOSAT-1 4.1 22:44:45 17° SE 22:47:49 45° ENE 22:51:57 10° N
CZ-4B R/B 3.4 22:43:15 10° NNE 22:48:17 70° ESE 22:53:09 10° S
USA 234 3.8 22:44:47 10° ENE 22:50:38 34° SE 22:56:25 10° SSW
SL-8 R/B 3.7 22:48:02 10° WSW 22:52:46 58° SSE 22:57:29 10° E
Cosmos 1536 Rocket 4.3 22:49:26 10° N 22:53:42 40° ENE 22:56:28 19° SE
Cosmos 2154 Rocket 4.3 22:47:56 10° SSW 22:54:07 72° W 23:00:21 10° N
Cosmos 1908 Rocket 4.1 22:50:13 10° SSW 22:54:33 59° WNW 22:58:58 10° N
Cosmos 1850 Rocket 4.0 22:52:49 10° NNW 22:58:09 83° ENE 23:02:05 19° SSE
USA 245 4.0 22:56:41 13° S 22:59:21 43° W 23:03:06 10° NNW
Meteor 1-14 Rocket 4.4 22:55:28 14° SSE 23:00:14 53° E 23:05:40 10° NNE
SL-08 RB Rocket 3.9 22:57:06 14° S 23:00:58 72° WSW 23:05:38 10° NNW
Cosmos 1184 Rocket 2.9 22:57:59 11° SSW 23:01:10 80° WNW 23:04:33 10° N
ATLAS 5 CENTAUR R/B 4.3 22:59:58 10° WNW 23:04:19 21° WSW 23:08:52 10° SSW
CZ-4 R/B 3.7 23:00:21 10° NNE 23:05:04 75° ESE 23:09:29 11° S
ARGOS 3.6 23:01:22 12° S 23:06:18 60° WSW 23:11:37 10° NNW
Intercosmos 25 2.9 23:06:57 14° S 23:10:02 86° W 23:13:12 10° N
Cosmos 1862 4.4 23:06:16 10° SSW 23:10:10 45° WNW 23:14:07 10° N
Cosmos 2151 Rocket 3.9 23:09:29 21° SSE 23:12:13 51° E 23:16:38 10° NNE
NOSS 5 (C) 4.0 23:09:08 10° SW 23:12:21 73° SE 23:15:29 10° NE
COSMOS 2487 3.9 23:13:14 10° NW 23:16:30 32° WSW 23:18:52 16° SSW
Cosmos 1741 Rocket 4.1 23:11:27 10° NNW 23:16:42 74° WSW 23:20:10 21° SSE
Cosmos 1825 3.5 23:14:04 10° SW 23:17:41 40° WNW 23:21:20 10° N
Cosmos 2278 Rocket 2.2 23:12:31 10° SSW 23:18:12 85° ESE 23:23:55 10° NNE
Cosmos 1833 Rocket 2.8 23:13:26 10° NNW 23:19:04 70° ENE 23:22:38 23° SE
Cosmos 2084 3.1 23:16:20 10° SSW 23:20:08 64° SE 23:23:58 10° NE
Cosmos 1844 4.1 23:15:37 10° SW 23:21:22 67° WNW 23:27:11 10° NNE
Cosmos 2366 rocket 4.0 23:21:19 17° S 23:26:19 74° E 23:32:39 10° NNE
Cosmos 1812 3.0 23:22:31 10° N 23:26:20 53° ENE 23:27:53 31° SE
Cosmos 1844 Rocket 3.8 23:23:48 10° SW 23:29:13 46° NW 23:34:41 10° NNE
CZ-4C R/B 4.0 23:27:38 21° SSW 23:29:57 50° W 23:33:56 10° NNW
Gbstr 26 Del rocket 3.3 23:27:24 10° WNW 23:32:33 75° NNE 23:35:48 17° E
APEX 3.6 23:30:42 22° S 23:33:14 64° ESE 23:38:25 10° NE
Cosmos 2082 Rocket 2.2 23:28:13 10° NNW 23:33:56 78° WSW 23:37:16 26° SSE
USA 229 DEB 3.8 23:27:57 10° NW 23:35:05 84° SW 23:39:43 24° SE
USA 229 3.8 23:28:03 10° NW 23:35:10 84° SW 23:39:49 24° SE
Okean 1-7 Rocket 4.1 23:33:12 10° N 23:37:35 47° ENE 23:39:26 29° SE
Cosmos 1242 Rocket 4.5 23:39:32 10° NW 23:42:31 24° W 23:44:55 13° SW
Okean 1 Rocket 3.7 23:42:15 31° SE 23:43:41 40° E 23:47:54 10° NNE
Cosmos 1025 Rocket 4.3 23:39:56 10° N 23:43:47 29° ENE 23:45:25 23° ESE
Okean 2 Rocket 4.4 23:40:54 10° SW 23:45:01 37° WNW 23:49:08 10° N
Cosmos 1300 Rocket 3.9 23:45:04 34° SE 23:46:36 49° E 23:50:54 10° NNE
Cosmos 2297 3.6 23:44:49 14° SSW 23:49:45 80° ESE 23:55:31 10° NNE
Cosmos 2218 Rocket 4.3 23:43:58 13° SSW 23:49:48 70° WNW 23:56:14 10° N
H-2A R/B 2.8 23:46:19 19° SSW 23:49:57 48° W 23:55:07 10° NNW
Cosmos 1400 Rocket 4.3 23:51:04 21° E 23:51:32 22° E 23:54:44 10° NE
AVUM R/B 3.3 23:48:30 10° NNW 23:52:03 86° ENE 23:52:52 51° SE
